PERSEUS-M1

Last updated on Wed Jun 24 2026 00:03:53 GMT+0000 (Coordinated Universal Time)

1 40039U 14033AF 26173.78976042 .00001603 00000+0 14958-3 0 9998 2 40039 97.9644 118.0134 0009918 280.1587 79.8514 14.95646898651470
UTC large
Height (km)
Speed (km/s)
/
Latitude / Longitude
Inclination (degrees)
Orbital Period (minutes)
Azimuth
Elevation
Range (km)
Doppler Factor

Next 0 passes for location: London (51.5072 / 0.1276)

No passes found over London.
PERSEUS-M1